Terug naar catalogus

COSMOS 374 DEB

ActiefLEO
NORAD 4617·DEBRIS·🇷🇺 Russia

Gelanceerd Oct 23, 1970 vanaf Baikonur Cosmodrome

Loading…

Volgende Passages (komende 24 uur)

TLE

VersSource: Space-Track

Epoch: Sep 14, 2026, 22:19 UTC

1 04617U 70089D   26257.93027149  .00002472  00000-0  40694-3 0  9990
2 04617  62.9356  91.1771 0330168 345.2903  13.8732 14.42805300780921

Volg COSMOS 374 DEB in realtime met AllMySat

Download on the App Store